Location: Bílinka
(49.3579°N, 14.3767°E)
Time: 01:28:21
(UTC+00:00)

Cosmos 1408 - Pass Details

Date: 28 January 2023
Orbit: 431 x 463 km, 82.6° (Epoch: 30 March)

Event Time Altitude Azimuth Distance (km) Brightness Sun altitude
Rises 17:49:25 0° 189° (S) 2,396 6.3 -19.1°
Reaches altitude 10° 17:51:26 10° 189° (S) 1,536 5.3 -19.4°
Maximum altitude 17:54:47 87° 280° (W) 444 2.2 -20.0°
Enters shadow 17:55:27 55° 5° (N) 534 2.6 -20.1°
